Regional Weather Roundup
Issued by NWS

Home | Current Version | Previous Version | Text Only | Print | Product List | Glossary On
Versions: 1 2 3 4 5 6 7 8 9 10 11 12 13 14 15 16 17 18 19 20 21 22 23 24 25 26 27 28 29 30 31 32 33 34 35 36 37 38 39 40 41 42 43 44 45 46 47 48 49 50
000
ASUS43 KBIS 190910
RWRND

NORTH DAKOTA REGIONAL WEATHER ROUNDUP
NATIONAL WEATHER SERVICE BISMARCK ND
300 AM CST SUN NOV 19 2017

NOTE: "FAIR" INDICATES FEW OR NO CLOUDS BELOW 12,000 FEET WITH NO
SIGNIFICANT WEATHER AND/OR OBSTRUCTIONS TO VISIBILITY.


NDZ001>003-009>011-017-191000-
NORTHWEST NORTH DAKOTA

CITY           SKY/WX    TMP DP  RH WIND       PRES   REMARKS
WILLISTON      CLOUDY    24  20  84 SW8       29.94F WCI  15
MINOT          CLOUDY    23  18  81 S7        29.91F WCI  15
MINOT AFB      CLOUDY    23  18  81 CALM      29.90F
$$

NDZ018>021-031>035-040>046-191000-
SOUTHWEST NORTH DAKOTA

CITY           SKY/WX    TMP DP  RH WIND       PRES   REMARKS
BISMARCK       CLOUDY    22  18  85 CALM      30.02S
DICKINSON      CLOUDY    30  21  69 SW15      29.95F WCI  19
GARRISON         N/A     26  22  84 W9        29.95F WCI  17
HETTINGER ARPT CLOUDY    22  17  81 NW3       30.03S
$$

NDZ004>008-012>016-024-026-027-054-191000-
NORTHEAST NORTH DAKOTA

CITY           SKY/WX    TMP DP  RH WIND       PRES   REMARKS
GRAND FORKS    CLOUDY    10   7  87 SW7       30.01F WCI  -1
GRND FRKS AFB  CLEAR      9   5  83 W6        30.00F WCI  -1
DEVILS LAKE    CLOUDY    16  13  88 SW9       29.96S WCI   4
$$

NDZ022-023-025-028>030-036>039-047>053-191000-
SOUTHEAST NORTH DAKOTA

CITY           SKY/WX    TMP DP  RH WIND       PRES   REMARKS
FARGO          CLEAR     13   8  81 S6        30.04F WCI   4
JAMESTOWN      CLEAR     16  13  88 W3        29.99R
$$





USA.gov is the U.S. government's official web portal to all federal, state and local government web resources and services.